Weather History for Spirit of St Louis, MO

Change the Weather History Date:

Wednesday, February 27, 2013

  Actual Average Record
Temperature  
Mean Temperature 34 °F -  
Max Temperature 35 °F 45 °F 71 °F (2006)
Min Temperature 32 °F 27 °F 14 °F (2002)
Degree Days  
Heating Degree Days 32    
Moisture  
Dew Point 29 °F    
Average Humidity 85    
Maximum Humidity 89    
Minimum Humidity 79    
Precipitation  
Precipitation 0.01 in - - ()
Sea Level Pressure  
Sea Level Pressure 29.79 in    
Wind  
Wind Speed 11 mph (West)    
Max Wind Speed 18 mph    
Max Gust Speed 24 mph    
Visibility 4 miles    
Events Snow    
Averages and records for this station are not official NWS values.
T = Trace of Precipitation, MM = Missing Value Source: NWS Daily Summary

Daily Weather History Graph

Daily Weather History Graph

Search for Another Location

Airport:

Trip Planner

Search our weather history database for the weather conditions in past years. The results will help you decide how hot, cold, wet, or windy it might be!

Date:

Astronomy

Feb. 27, 2013 Rise Set
Actual Time 6:37 AM CST 5:53 PM CST
Civil Twilight 6:10 AM CST 6:20 PM CST
Nautical Twilight 5:39 AM CST 6:51 PM CST
Astronomical Twilight 5:09 AM CST 7:22 PM CST
Moon 8:12 PM CST (2/27) 7:14 AM CST (2/27)
Length of Visible Light 12h 09m
Length of Day
11h 16m
Waning Gibbous, 96% of the Moon is Illuminated
Feb 27
Waning Gibbous
Mar 4
Last Quarter
Mar 11
New
Mar 19
First Quarter
Mar 27
Full

Hourly Weather History & Observations

Time (CST) Temp. Windchill Dew Point Humidity Pressure Visibility Wind Dir Wind Speed Gust Speed Precip Events Conditions
12:54 AM 34.0 °F 25.5 °F 30.0 °F 85% 29.71 in 9.0 mi WNW 11.5 mph - N/A   Overcast
1:54 AM 34.0 °F 25.5 °F 28.9 °F 82% 29.71 in 10.0 mi West 11.5 mph 20.7 mph N/A   Overcast
2:03 AM 33.8 °F 26.4 °F 28.4 °F 81% 29.69 in 9.0 mi West 9.2 mph - N/A   Overcast
2:54 AM 34.0 °F 27.2 °F 28.9 °F 82% 29.71 in 9.0 mi West 8.1 mph - N/A   Overcast
3:41 AM 33.8 °F 27.0 °F 30.2 °F 87% 29.71 in 2.0 mi West 8.1 mph - 0.00 in Snow Light Snow
3:50 AM 33.8 °F 27.0 °F 30.2 °F 87% 29.71 in 1.8 mi West 8.1 mph - 0.00 in Snow Light Snow
3:54 AM 33.8 °F 27.7 °F 30.2 °F 87% 29.71 in 1.8 mi West 6.9 mph - N/A Snow Light Snow
4:11 AM 33.8 °F 28.6 °F 30.2 °F 87% 29.71 in 1.5 mi West 5.8 mph - 0.00 in Snow Light Snow
4:24 AM 33.8 °F 27.7 °F 30.2 °F 87% 29.71 in 2.5 mi WSW 6.9 mph - 0.00 in Snow Light Snow
4:39 AM 33.8 °F 27.0 °F 30.2 °F 87% 29.72 in 3.0 mi WSW 8.1 mph - 0.00 in Snow Light Snow
4:46 AM 33.8 °F 26.4 °F 30.2 °F 87% 29.72 in 3.0 mi WSW 9.2 mph - 0.00 in Snow Light Snow
4:54 AM 33.1 °F 25.5 °F 30.0 °F 89% 29.75 in 4.0 mi WSW 9.2 mph - 0.00 in Snow Light Snow
5:01 AM 33.8 °F 25.8 °F 30.2 °F 87% 29.73 in 4.0 mi WSW 10.4 mph - N/A Snow Light Snow
5:54 AM 33.1 °F 24.9 °F 30.0 °F 89% 29.76 in 3.0 mi WSW 10.4 mph - 0.00 in Snow Light Snow
5:58 AM 33.8 °F 25.3 °F 30.2 °F 87% 29.74 in 3.0 mi WSW 11.5 mph - 0.00 in Snow Light Snow
6:54 AM 33.1 °F 24.4 °F 30.0 °F 89% 29.78 in 6.0 mi WSW 11.5 mph - 0.00 in   Overcast
7:54 AM 33.1 °F 23.9 °F 30.0 °F 89% 29.79 in 3.0 mi WSW 12.7 mph - 0.00 in Snow Light Snow
8:54 AM 34.0 °F 25.5 °F 30.9 °F 89% 29.80 in 3.0 mi West 11.5 mph - 0.00 in Snow Light Snow
9:54 AM 35.1 °F 25.5 °F 30.9 °F 85% 29.80 in 3.0 mi West 15.0 mph 20.7 mph 0.01 in Snow Light Snow
10:01 AM 35.6 °F 27.5 °F 30.2 °F 81% 29.78 in 3.0 mi West 11.5 mph 20.7 mph 0.00 in Snow Light Snow
10:03 AM 35.6 °F 27.1 °F 30.2 °F 81% 29.78 in 3.0 mi West 12.7 mph - 0.00 in Snow Light Snow
10:37 AM 33.8 °F 24.3 °F 30.2 °F 87% 29.78 in 1.2 mi West 13.8 mph - 0.00 in Snow Light Snow
10:44 AM 33.8 °F 23.9 °F 30.2 °F 87% 29.78 in 1.5 mi West 15.0 mph 20.7 mph 0.00 in Snow Light Snow
10:54 AM 35.1 °F 26.4 °F 30.9 °F 85% 29.80 in 1.8 mi West 12.7 mph - 0.00 in Snow Light Snow
11:00 AM 35.6 °F 27.1 °F 30.2 °F 81% 29.78 in 2.0 mi West 12.7 mph - 0.00 in Snow Light Snow
11:23 AM 33.8 °F 24.8 °F 30.2 °F 87% 29.79 in 1.2 mi West 12.7 mph - 0.00 in Snow Light Snow
11:54 AM 34.0 °F 25.0 °F 30.0 °F 85% 29.81 in 2.0 mi West 12.7 mph - 0.00 in Snow Light Snow
12:07 PM 33.8 °F 24.8 °F 30.2 °F 87% 29.79 in 1.2 mi West 12.7 mph 20.7 mph 0.00 in Snow Light Snow
12:38 PM 33.8 °F 25.3 °F 30.2 °F 87% 29.79 in 0.8 mi West 11.5 mph - 0.00 in Snow Light Snow
12:54 PM 33.1 °F 23.4 °F 30.0 °F 89% 29.81 in 1.0 mi WSW 13.8 mph - 0.00 in Snow Light Snow
1:05 PM 33.8 °F 24.8 °F 30.2 °F 87% 29.79 in 3.0 mi WSW 12.7 mph - 0.00 in Snow Light Snow
1:13 PM 33.8 °F 25.3 °F 30.2 °F 87% 29.79 in 2.5 mi West 11.5 mph - N/A Snow Light Snow
1:32 PM 35.6 °F 27.1 °F 30.2 °F 81% 29.79 in 3.0 mi West 12.7 mph - 0.00 in Snow Light Snow
1:49 PM 33.8 °F 25.3 °F 30.2 °F 87% 29.79 in 2.5 mi West 11.5 mph 21.9 mph N/A Snow Light Snow
1:54 PM 34.0 °F 24.6 °F 30.0 °F 85% 29.81 in 2.0 mi WSW 13.8 mph - 0.00 in Snow Light Snow
1:57 PM 33.8 °F 25.8 °F 30.2 °F 87% 29.79 in 2.0 mi West 10.4 mph - 0.00 in Snow Light Snow
2:07 PM 33.8 °F 25.8 °F 30.2 °F 87% 29.80 in 1.5 mi West 10.4 mph - 0.00 in Snow Light Snow
2:44 PM 33.8 °F 26.4 °F 30.2 °F 87% 29.80 in 2.0 mi West 9.2 mph - 0.00 in Snow Light Snow
2:54 PM 34.0 °F 26.0 °F 30.0 °F 85% 29.83 in 3.0 mi West 10.4 mph - 0.00 in Snow Light Snow
3:54 PM 34.0 °F 25.5 °F 28.9 °F 82% 29.85 in 3.0 mi West 11.5 mph - 0.00 in   Haze
4:49 PM 33.8 °F 25.8 °F 28.4 °F 81% 29.84 in 1.8 mi West 10.4 mph - 0.00 in Snow Light Snow
4:54 PM 33.1 °F 23.4 °F 28.9 °F 85% 29.87 in 1.8 mi West 13.8 mph - 0.00 in Snow Light Snow
5:54 PM 33.1 °F 23.4 °F 28.9 °F 85% 29.89 in 1.8 mi WNW 13.8 mph - 0.00 in Snow Light Snow
6:54 PM 32.0 °F 20.5 °F 26.1 °F 79% 29.91 in 1.8 mi West 18.4 mph 24.2 mph 0.00 in   Haze
6:56 PM 32.0 °F 20.8 °F 26.6 °F 80% 29.88 in 10.0 mi WNW 17.3 mph 24.2 mph N/A   Overcast
7:49 PM 32.0 °F 24.2 °F 26.6 °F 80% 29.89 in 6.0 mi West 9.2 mph - 0.00 in Snow Light Snow
7:54 PM 32.0 °F 23.0 °F 26.6 °F 80% 29.90 in 5.0 mi West 11.5 mph 19.6 mph N/A Snow Light Snow
8:54 PM 32.0 °F 23.6 °F 26.1 °F 79% 29.92 in 6.0 mi West 10.4 mph - 0.00 in Snow Light Snow
9:54 PM 32.0 °F 23.6 °F 26.1 °F 79% 29.93 in 10.0 mi WNW 10.4 mph - 0.00 in   Overcast
10:54 PM 32.0 °F 23.6 °F 26.1 °F 79% 29.92 in 10.0 mi WNW 10.4 mph - N/A   Overcast
11:54 PM 32.0 °F 22.1 °F 26.6 °F 80% 29.90 in 10.0 mi WNW 13.8 mph - N/A   Overcast